QPF
0.00 0.00 0.00 0.00 0.00 0.00 0.00 0.00 0.00 0.00 0.00 0.00 0.00 0.00 0.00 0.00 0.00 0.00 0.00 0.00 0.00 0.00 0.00 0.00 0.00 0.00 0.00 0.00 0.00 0.00 0.00 0.00 0.00 0.00 0.01 0.03 0.02 0.03 0.04 0.07 0.12 0.12 0.10 0.05 0.02 0.00 0.00 0.00 0.00
0.00 0.00 0.00 0.00 0.00 0.00 0.00 0.00 0.00 0.00 0.00 0.00 0.00 0.00 0.00 0.00 0.00 0.00 0.00 0.00 0.00 0.00 0.00 0.00 0.00 0.00 0.00 0.00 0.00 0.00 0.00 0.00 0.00 0.00 0.02 0.03 0.03 0.01 0.03 0.04 0.09 0.11 0.04 0.04 0.01 0.01 0.00 0.00 0.00
0.00 0.00 0.00 0.00 0.00 0.00 0.00 0.00 0.00 0.00 0.00 0.00 0.00 0.00 0.00 0.01 0.00 0.00 0.00 0.00 0.00 0.00 0.00 0.00 0.00 0.00 0.00 0.00 0.00 0.00 0.00 0.00 0.03 0.03 0.02 0.04 0.03 0.01 0.04 0.05 0.07 0.05 0.02 0.01 0.01 0.00 0.00 0.00 0.00
0.00 0.00 0.00 0.00 0.00 0.00 0.00 0.00 0.00 0.00 0.00 0.00 0.00 0.00 0.01 0.05 0.04 0.03 0.00 0.00 0.00 0.00 0.00 0.00 0.00 0.00 0.00 0.00 0.00 0.00 0.00 0.00 0.02 0.04 0.04 0.04 0.04 0.02 0.07 0.05 0.07 0.04 0.03 0.04 0.01 0.00 0.00 0.00 0.00
0.00 0.00 0.00 0.00 0.00 0.00 0.00 0.00 0.00 0.00 0.00 0.00 0.00 0.02 0.04 0.08 0.14 0.20 0.06 0.01 0.00 0.00 0.00 0.00 0.00 0.00 0.00 0.00 0.01 0.02 0.01 0.00 0.02 0.04 0.08 0.09 0.08 0.14 0.23 0.22 0.16 0.13 0.05 0.04 0.00 0.00 0.00 0.00 0.00
0.00 0.00 0.00 0.00 0.00 0.00 0.00 0.00 0.00 0.00 0.00 0.00 0.00 0.02 0.04 0.09 0.24 0.31 0.22 0.05 0.02 0.01 0.00 0.00 0.00 0.00 0.00 0.01 0.02 0.03 0.03 0.03 0.02 0.06 0.08 0.11 0.21 0.25 0.24 0.22 0.30 0.16 0.07 0.01 0.00 0.00 0.00 0.00 0.00
0.00 0.00 0.00 0.00 0.00 0.00 0.00 0.00 0.00 0.00 0.00 0.00 0.00 0.01 0.01 0.07 0.26 0.49 0.36 0.15 0.01 0.00 0.01 0.00 0.00 0.00 0.00 0.00 0.00 0.01 0.02 0.07 0.13 0.14 0.17 0.12 0.19 0.17 0.13 0.12 0.22 0.26 0.02 0.00 0.00 0.00 0.00 0.00 0.00
0.00 0.00 0.00 0.00 0.00 0.00 0.00 0.00 0.00 0.00 0.00 0.00 0.00 0.00 0.00 0.03 0.14 0.21 0.41 0.23 0.03 0.00 0.00 0.01 0.00 0.00 0.00 0.00 0.00 0.00 0.00 0.05 0.15 0.15 0.30 0.18 0.12 0.09 0.15 0.26 0.24 0.26 0.04 0.00 0.00 0.00 0.00 0.00 0.00
0.00 0.00 0.00 0.00 0.00 0.00 0.00 0.00 0.00 0.00 0.00 0.00 0.00 0.00 0.00 0.00 0.05 0.13 0.15 0.16 0.08 0.02 0.00 0.00 0.00 0.00 0.01 0.01 0.01 0.01 0.00 0.01 0.12 0.13 0.17 0.22 0.11 0.07 0.20 0.41 0.50 0.29 0.06 0.00 0.00 0.00 0.00 0.00 0.00
0.00 0.00 0.00 0.00 0.00 0.00 0.00 0.00 0.00 0.00 0.00 0.00 0.00 0.00 0.00 0.00 0.01 0.13 0.15 0.07 0.05 0.06 0.03 0.01 0.00 0.00 0.00 0.01 0.02 0.07 0.07 0.04 0.07 0.08 0.07 0.14 0.12 0.12 0.21 0.26 0.47 0.40 0.14 0.01 0.00 0.00 0.00 0.00 0.00
0.00 0.00 0.00 0.00 0.00 0.00 0.00 0.00 0.00 0.00 0.00 0.00 0.00 0.00 0.00 0.00 0.00 0.01 0.04 0.04 0.01 0.02 0.05 0.02 0.00 0.00 0.00 0.01 0.01 0.02 0.08 0.09 0.09 0.07 0.10 0.07 0.06 0.13 0.14 0.25 0.38 0.40 0.14 0.03 0.00 0.00 0.00 0.00 0.00
0.00 0.00 0.00 0.00 0.00 0.00 0.00 0.00 0.00 0.00 0.00 0.00 0.00 0.00 0.00 0.00 0.00 0.00 0.00 0.00 0.00 0.00 0.00 0.00 0.00 0.00 0.00 0.01 0.01 0.01 0.02 0.11 0.12 0.09 0.09 0.06 0.06 0.10 0.34 0.36 0.32 0.30 0.14 0.04 0.01 0.01 0.00 0.00 0.00
0.00 0.00 0.00 0.00 0.00 0.00 0.00 0.00 0.00 0.00 0.00 0.00 0.00 0.00 0.00 0.00 0.00 0.00 0.00 0.00 0.00 0.00 0.00 0.00 0.00 0.00 0.00 0.00 0.01 0.01 0.01 0.03 0.12 0.13 0.09 0.08 0.03 0.08 0.61 0.68 0.36 0.32 0.13 0.04 0.01 0.01 0.01 0.00 0.00
0.00 0.00 0.00 0.00 0.00 0.00 0.00 0.00 0.00 0.00 0.00 0.00 0.00 0.00 0.00 0.00 0.00 0.00 0.00 0.00 0.00 0.00 0.00 0.00 0.00 0.00 0.00 0.00 0.00 0.02 0.02 0.02 0.05 0.12 0.12 0.10 0.05 0.08 0.33 0.41 0.29 0.36 0.14 0.06 0.02 0.01 0.01 0.00 0.00
0.00 0.00 0.00 0.00 0.00 0.00 0.00 0.00 0.00 0.00 0.00 0.00 0.00 0.00 0.00 0.00 0.00 0.00 0.00 0.00 0.00 0.00 0.00 0.00 0.00 0.00 0.00 0.00 0.00 0.01 0.02 0.02 0.02 0.05 0.15 0.12 0.07 0.07 0.22 0.31 0.16 0.26 0.19 0.05 0.05 0.03 0.01 0.00 0.00
0.00 0.00 0.00 0.00 0.00 0.00 0.00 0.00 0.00 0.00 0.00 0.00 0.00 0.00 0.00 0.00 0.00 0.00 0.00 0.00 0.00 0.00 0.00 0.00 0.00 0.00 0.00 0.00 0.00 0.00 0.01 0.03 0.03 0.01 0.06 0.10 0.06 0.06 0.16 0.26 0.23 0.22 0.20 0.10 0.03 0.02 0.01 0.00 0.00
0.00 0.00 0.00 0.00 0.00 0.00 0.00 0.00 0.00 0.00 0.00 0.00 0.00 0.00 0.00 0.00 0.00 0.00 0.00 0.00 0.00 0.00 0.00 0.00 0.00 0.00 0.00 0.00 0.00 0.00 0.00 0.01 0.03 0.03 0.02 0.06 0.05 0.05 0.11 0.30 0.35 0.22 0.16 0.16 0.10 0.07 0.06 0.03 0.00
0.00 0.00 0.00 0.00 0.00 0.00 0.00 0.00 0.00 0.00 0.00 0.00 0.00 0.00 0.00 0.00 0.00 0.00 0.00 0.00 0.00 0.00 0.00 0.00 0.00 0.00 0.00 0.00 0.00 0.00 0.01 0.02 0.03 0.03 0.03 0.04 0.05 0.10 0.10 0.22 0.44 0.35 0.20 0.18 0.22 0.20 0.11 0.09 0.03
0.00 0.00 0.00 0.00 0.00 0.00 0.00 0.00 0.00 0.00 0.00 0.00 0.00 0.00 0.00 0.00 0.00 0.00 0.00 0.00 0.00 0.00 0.00 0.00 0.00 0.00 0.00 0.00 0.00 0.00 0.00 0.02 0.03 0.02 0.02 0.03 0.06 0.06 0.10 0.30 0.51 0.43 0.31 0.17 0.23 0.30 0.25 0.19 0.11
0.00 0.00 0.00 0.00 0.00 0.00 0.00 0.00 0.00 0.00 0.00 0.00 0.00 0.00 0.00 0.00 0.00 0.00 0.00 0.00 0.00 0.00 0.00 0.00 0.00 0.00 0.00 0.00 0.00 0.00 0.00 0.00 0.02 0.03 0.02 0.03 0.05 0.05 0.07 0.20 0.35 0.50 0.35 0.34 0.30 0.33 0.35 0.34 0.15
0.00 0.00 0.00 0.00 0.00 0.00 0.00 0.01 0.01 0.00 0.00 0.00 0.00 0.00 0.00 0.00 0.00 0.00 0.00 0.00 0.00 0.00 0.00 0.00 0.00 0.00 0.00 0.00 0.00 0.00 0.00 0.00 0.03 0.05 0.04 0.02 0.03 0.06 0.07 0.15 0.30 0.40 0.31 0.21 0.28 0.42 0.28 0.21 0.16
0.00 0.00 0.00 0.00 0.00 0.00 0.00 0.04 0.00 0.00 0.00 0.00 0.00 0.00 0.00 0.00 0.00 0.00 0.00 0.00 0.00 0.00 0.00 0.00 0.00 0.00 0.00 0.00 0.00 0.00 0.00 0.00 0.01 0.04 0.05 0.05 0.05 0.03 0.07 0.13 0.19 0.32 0.31 0.08 0.07 0.15 0.36 0.17 0.15
0.00 0.00 0.00 0.00 0.00 0.00 0.00 0.02 0.01 0.00 0.00 0.00 0.00 0.00 0.00 0.00 0.00 0.00 0.00 0.00 0.00 0.00 0.00 0.00 0.00 0.00 0.00 0.00 0.00 0.00 0.00 0.00 0.00 0.01 0.04 0.05 0.06 0.03 0.04 0.10 0.23 0.31 0.18 0.05 0.01 0.07 0.29 0.29 0.13
0.00 0.00 0.00 0.00 0.00 0.01 0.01 0.02 0.01 0.01 0.02 0.00 0.00 0.00 0.00 0.00 0.00 0.00 0.00 0.00 0.00 0.00 0.00 0.00 0.00 0.00 0.00 0.00 0.00 0.00 0.00 0.00 0.00 0.00 0.03 0.08 0.10 0.09 0.05 0.06 0.17 0.31 0.51 0.18 0.02 0.02 0.23 0.27 0.32
0.00 0.00 0.00 0.00 0.02 0.01 0.01 0.00 0.01 0.00 0.00 0.00 0.00 0.00 0.00 0.00 0.00 0.00 0.00 0.00 0.00 0.00 0.00 0.00 0.00 0.00 0.00 0.00 0.00 0.00 0.00 0.00 0.00 0.00 0.01 0.03 0.10 0.13 0.08 0.08 0.15 0.38 0.32 0.25 0.07 0.01 0.07 0.22 0.35
0.00 0.00 0.00 0.01 0.03 0.03 0.01 0.01 0.01 0.00 0.00 0.00 0.00 0.00 0.00 0.00 0.00 0.00 0.00 0.00 0.00 0.00 0.00 0.00 0.00 0.00 0.00 0.00 0.00 0.00 0.00 0.00 0.00 0.01 0.01 0.01 0.05 0.10 0.13 0.07 0.08 0.21 0.45 0.31 0.07 0.01 0.01 0.07 0.15
0.00 0.00 0.00 0.01 0.02 0.03 0.01 0.01 0.01 0.00 0.00 0.00 0.00 0.00 0.00 0.00 0.00 0.00 0.00 0.00 0.00 0.00 0.00 0.00 0.00 0.00 0.00 0.00 0.00 0.00 0.00 0.00 0.00 0.00 0.00 0.01 0.01 0.04 0.12 0.12 0.03 0.09 0.27 0.42 0.25 0.07 0.00 0.01 0.02
0.00 0.00 0.00 0.01 0.01 0.01 0.01 0.00 0.00 0.00 0.00 0.00 0.00 0.00 0.00 0.00 0.00 0.00 0.00 0.00 0.00 0.00 0.00 0.00 0.00 0.00 0.00 0.00 0.00 0.00 0.00 0.00 0.00 0.00 0.00 0.00 0.01 0.01 0.04 0.13 0.13 0.03 0.08 0.31 0.62 0.40 0.12 0.02 0.01
0.00 0.00 0.00 0.01 0.00 0.00 0.01 0.01 0.00 0.00 0.00 0.00 0.00 0.00 0.00 0.00 0.00 0.00 0.00 0.00 0.00 0.00 0.00 0.00 0.00 0.00 0.00 0.00 0.00 0.00 0.00 0.00 0.00 0.00 0.00 0.00 0.00 0.00 0.01 0.07 0.13 0.06 0.03 0.09 0.51 0.75 0.51 0.17 0.03
0.00 0.00 0.00 0.00 0.00 0.00 0.00 0.00 0.00 0.00 0.00 0.00 0.00 0.00 0.00 0.00 0.00 0.00 0.00 0.00 0.00 0.00 0.00 0.00 0.00 0.00 0.00 0.00 0.00 0.00 0.00 0.00 0.00 0.00 0.00 0.00 0.00 0.01 0.01 0.02 0.05 0.08 0.04 0.09 0.31 0.38 0.47 0.34 0.19
MSLP
1012.25 1011.45 1010.95 1009.83 1008.41 1006.67 1005.58 1006.58 1007.11 1006.82 1006.82 1007.16 1006.93 1006.58 1005.83 1005.59 1005.23 1005.66 1006.93 1007.30 1007.68 1007.60 1008.60 1009.95 1010.75 1011.08 1011.28 1011.48 1011.63 1011.89 1012.18 1012.63 1012.80 1013.25 1013.53 1013.81 1014.06 1014.31 1014.63 1014.83 1015.03 1015.34 1015.69 1015.89 1016.36 1016.64 1016.93 1017.08 1017.29
1011.57 1011.14 1010.20 1008.72 1007.28 1005.68 1005.81 1007.31 1007.27 1007.72 1007.70 1007.34 1006.89 1006.80 1006.60 1006.33 1007.32 1006.97 1007.50 1008.60 1008.15 1008.20 1008.65 1009.42 1010.88 1011.24 1011.55 1011.84 1011.99 1012.28 1012.33 1012.77 1013.12 1013.47 1013.75 1013.94 1014.27 1014.47 1014.84 1014.95 1015.26 1015.58 1015.91 1016.18 1016.50 1016.91 1017.31 1017.67 1017.92
1011.64 1011.06 1008.97 1007.97 1007.16 1005.96 1006.09 1007.85 1008.13 1008.06 1007.63 1007.45 1007.17 1007.45 1007.56 1010.11 1010.00 1009.94 1009.74 1009.64 1009.18 1009.15 1009.15 1009.96 1010.78 1011.10 1011.61 1011.96 1012.28 1012.62 1012.66 1012.85 1013.31 1013.65 1013.90 1014.15 1014.45 1014.56 1014.92 1015.06 1015.40 1015.64 1016.05 1016.26 1016.75 1017.28 1017.79 1018.08 1018.27
1010.93 1010.14 1009.67 1008.23 1007.42 1008.22 1008.15 1008.54 1008.73 1008.07 1007.73 1007.83 1007.90 1007.87 1010.48 1014.47 1014.50 1013.02 1011.33 1010.44 1010.10 1010.07 1010.24 1011.39 1011.86 1011.86 1011.96 1012.21 1012.44 1012.77 1012.97 1013.14 1013.39 1013.73 1014.02 1014.32 1014.55 1014.86 1015.02 1015.32 1015.66 1015.88 1016.23 1016.48 1016.97 1017.55 1017.99 1018.45 1018.57
1010.94 1009.94 1008.76 1008.32 1008.64 1008.90 1009.19 1009.28 1009.05 1008.71 1008.72 1008.79 1008.80 1009.30 1012.24 1015.51 1015.96 1014.50 1012.91 1011.98 1011.20 1010.90 1010.91 1011.58 1012.80 1012.75 1012.72 1012.70 1012.87 1012.96 1013.18 1013.38 1013.61 1013.82 1014.05 1014.34 1014.61 1014.96 1015.20 1015.55 1015.74 1015.97 1016.44 1016.87 1017.36 1017.90 1018.29 1018.68 1018.83
1010.13 1010.16 1008.70 1008.29 1009.04 1009.54 1009.70 1010.00 1009.71 1009.50 1009.60 1010.38 1010.26 1010.92 1014.13 1016.46 1016.19 1016.22 1014.83 1013.95 1013.03 1012.40 1011.69 1011.80 1012.81 1012.92 1013.03 1013.28 1013.26 1013.31 1013.36 1013.53 1013.73 1013.91 1014.10 1014.34 1014.69 1015.13 1015.53 1015.84 1016.06 1016.32 1016.79 1017.25 1017.84 1018.30 1018.53 1018.90 1019.15
1010.12 1009.57 1009.23 1009.76 1009.83 1009.87 1010.39 1010.79 1010.71 1010.47 1011.83 1012.31 1012.76 1012.14 1014.32 1016.05 1017.47 1017.03 1014.98 1016.16 1014.89 1014.51 1013.50 1012.82 1012.26 1012.64 1013.03 1013.04 1013.35 1013.51 1013.61 1013.71 1013.76 1014.00 1014.19 1014.45 1014.91 1015.34 1015.82 1016.36 1016.28 1016.50 1016.95 1017.57 1018.24 1018.59 1018.82 1019.18 1019.47
1010.70 1009.95 1009.84 1010.36 1010.18 1010.75 1011.70 1011.50 1011.86 1012.35 1013.86 1014.47 1015.14 1015.90 1016.65 1018.40 1017.68 1016.69 1016.53 1017.49 1015.77 1015.24 1015.80 1015.64 1014.28 1013.34 1012.46 1012.19 1013.06 1013.31 1013.47 1013.74 1013.89 1014.13 1014.30 1014.85 1015.00 1015.53 1016.30 1016.62 1016.74 1016.76 1017.25 1017.81 1018.57 1018.83 1019.08 1019.42 1019.73
1011.27 1009.85 1009.90 1010.76 1011.08 1011.63 1012.54 1012.15 1013.36 1014.21 1014.97 1016.18 1017.35 1018.47 1019.31 1019.21 1018.68 1017.86 1016.44 1016.02 1015.14 1016.15 1016.76 1016.64 1015.84 1015.21 1014.08 1013.18 1012.59 1013.16 1013.33 1013.45 1013.89 1014.08 1014.32 1014.81 1015.14 1015.73 1016.33 1016.88 1017.04 1016.96 1017.51 1018.10 1018.83 1019.17 1019.37 1019.70 1020.20
1010.88 1010.49 1011.57 1012.74 1012.82 1013.40 1014.14 1014.14 1014.95 1015.00 1016.21 1017.33 1018.05 1018.82 1019.23 1019.10 1018.80 1018.49 1018.27 1017.84 1017.49 1017.28 1017.12 1017.33 1016.78 1015.95 1014.96 1013.77 1013.12 1012.77 1012.64 1012.54 1013.03 1013.35 1013.94 1014.34 1015.16 1015.86 1016.21 1016.79 1017.23 1017.16 1017.53 1018.21 1018.99 1019.48 1019.73 1019.78 1019.99
1012.19 1012.29 1013.30 1013.95 1014.47 1014.17 1014.75 1016.15 1017.33 1016.46 1017.74 1019.53 1019.58 1019.50 1019.44 1019.19 1018.85 1018.89 1018.92 1018.68 1018.48 1018.11 1018.23 1017.84 1017.07 1016.34 1015.81 1015.12 1013.85 1013.19 1012.99 1012.98 1013.04 1013.09 1013.60 1014.31 1015.15 1016.10 1016.51 1016.87 1017.23 1017.37 1017.63 1018.09 1018.87 1019.58 1019.26 1018.73 1019.23
1013.50 1014.66 1014.53 1015.77 1015.47 1015.48 1016.33 1017.78 1019.21 1019.92 1020.91 1021.30 1021.03 1020.79 1020.27 1019.71 1019.30 1019.16 1018.93 1018.65 1018.45 1018.13 1018.01 1017.46 1016.99 1016.40 1016.09 1015.55 1014.67 1013.37 1012.87 1013.02 1013.21 1013.25 1013.44 1014.02 1014.92 1015.80 1016.54 1016.62 1016.91 1017.19 1017.32 1017.47 1018.08 1018.59 1018.61 1018.96 1018.98
1014.31 1015.24 1016.03 1016.60 1017.17 1017.70 1018.24 1019.02 1020.07 1021.41 1022.10 1022.00 1021.65 1021.23 1020.79 1020.62 1020.38 1020.08 1019.88 1019.34 1018.79 1018.17 1017.84 1017.62 1017.07 1016.51 1016.10 1015.63 1015.14 1013.93 1013.27 1013.12 1013.19 1013.34 1013.57 1013.86 1014.41 1015.41 1016.08 1016.26 1016.68 1016.71 1016.95 1017.09 1017.76 1018.25 1018.63 1019.19 1019.25
1016.13 1016.51 1016.96 1017.51 1017.89 1018.80 1019.17 1020.08 1020.40 1022.25 1022.68 1022.35 1022.15 1021.76 1021.52 1021.38 1021.11 1020.72 1020.48 1020.01 1019.46 1018.73 1018.26 1018.15 1017.58 1016.93 1016.26 1015.67 1015.14 1014.44 1013.17 1012.98 1013.26 1013.27 1013.42 1013.76 1014.11 1014.98 1015.63 1015.97 1016.33 1016.31 1016.64 1016.79 1017.30 1018.20 1018.84 1019.28 1019.36
1016.99 1016.65 1017.21 1018.39 1018.72 1019.35 1019.64 1019.92 1022.19 1023.46 1023.25 1022.92 1022.80 1022.64 1022.32 1022.04 1021.69 1021.48 1021.34 1020.76 1020.19 1019.53 1019.16 1018.49 1017.88 1017.25 1016.65 1015.76 1015.13 1014.29 1013.53 1013.07 1013.12 1013.25 1013.22 1013.49 1013.95 1014.61 1015.29 1015.22 1016.23 1016.59 1016.87 1017.09 1017.44 1018.30 1019.01 1019.52 1019.82
1017.83 1017.65 1017.73 1018.61 1020.06 1020.27 1020.71 1020.26 1023.33 1024.14 1023.84 1023.64 1023.57 1023.39 1023.10 1022.59 1022.29 1022.06 1021.82 1021.22 1020.80 1020.16 1019.72 1018.96 1018.38 1017.63 1017.00 1016.36 1015.73 1014.57 1013.80 1012.91 1012.96 1013.14 1013.32 1013.40 1013.84 1014.26 1014.89 1015.41 1015.91 1016.15 1016.50 1017.26 1017.86 1018.50 1019.10 1019.74 1019.66
1018.75 1019.14 1019.40 1019.75 1020.37 1021.60 1021.54 1021.26 1024.38 1024.97 1024.80 1024.62 1024.43 1024.18 1023.82 1023.29 1022.86 1022.51 1022.12 1021.61 1021.12 1020.48 1020.08 1019.25 1018.71 1018.11 1017.48 1016.70 1015.79 1014.71 1013.81 1012.72 1012.71 1012.85 1013.10 1013.36 1013.72 1013.97 1014.43 1014.95 1014.99 1016.12 1016.57 1017.13 1017.82 1018.54 1019.01 1019.34 1019.76
1021.33 1021.09 1020.95 1020.79 1021.50 1022.59 1022.32 1023.70 1025.29 1025.95 1025.91 1025.79 1025.45 1025.00 1024.58 1024.04 1023.51 1023.15 1022.60 1021.99 1021.51 1020.82 1020.43 1019.77 1019.03 1018.56 1017.94 1017.04 1016.10 1015.15 1014.34 1013.33 1012.75 1012.44 1012.73 1013.07 1013.36 1013.75 1014.04 1014.71 1014.94 1015.80 1016.37 1016.94 1017.66 1018.42 1019.14 1019.22 1019.67
1023.29 1022.45 1021.83 1022.17 1023.23 1023.77 1023.87 1024.60 1025.83 1026.71 1026.95 1026.73 1026.16 1025.76 1025.19 1024.70 1024.34 1023.79 1023.15 1022.44 1021.81 1021.38 1020.98 1020.31 1019.62 1019.19 1018.58 1017.64 1017.12 1016.31 1015.30 1014.61 1013.68 1012.43 1012.26 1012.63 1013.05 1013.48 1013.84 1014.14 1014.68 1015.19 1015.98 1016.62 1017.13 1018.09 1018.88 1019.34 1019.89
1024.11 1023.53 1022.98 1023.17 1023.61 1024.29 1023.84 1025.22 1027.27 1028.08 1028.48 1028.20 1027.48 1026.60 1025.98 1025.34 1024.73 1024.30 1023.60 1022.90 1022.20 1021.66 1021.31 1020.79 1020.30 1019.82 1019.41 1018.79 1018.23 1017.78 1016.73 1015.03 1014.12 1013.07 1011.83 1012.17 1012.52 1012.90 1013.44 1013.69 1014.36 1014.93 1015.55 1016.54 1016.76 1017.43 1017.86 1018.79 1019.38
1024.40 1024.13 1024.05 1023.87 1023.86 1024.13 1024.60 1026.37 1027.64 1028.73 1029.07 1029.12 1028.80 1027.84 1026.77 1026.04 1025.29 1024.69 1024.08 1023.35 1022.61 1022.02 1021.57 1021.15 1020.68 1020.24 1019.78 1019.32 1018.60 1017.90 1016.65 1015.62 1014.12 1013.46 1012.60 1011.83 1011.94 1012.40 1012.83 1013.34 1013.63 1014.16 1015.13 1015.76 1016.08 1016.66 1017.20 1017.85 1018.76
1024.76 1025.08 1024.38 1023.52 1023.68 1023.15 1025.11 1026.18 1028.05 1028.63 1028.86 1029.20 1029.03 1028.44 1027.72 1026.59 1025.84 1025.20 1024.58 1023.76 1023.05 1022.46 1022.01 1021.59 1021.09 1020.54 1020.15 1019.72 1019.02 1018.74 1017.97 1016.83 1015.82 1014.97 1013.80 1012.51 1011.35 1011.72 1012.17 1012.72 1013.05 1013.52 1013.47 1015.08 1015.34 1016.07 1016.61 1016.99 1017.61
1026.17 1025.19 1023.76 1023.59 1023.63 1024.41 1025.23 1026.23 1028.76 1029.52 1029.48 1029.53 1029.26 1028.62 1028.11 1027.61 1026.47 1025.55 1024.97 1024.32 1023.64 1022.94 1022.35 1021.89 1021.38 1020.78 1020.45 1020.11 1019.67 1019.11 1018.43 1017.57 1016.41 1015.35 1014.21 1012.69 1011.21 1011.23 1011.57 1012.01 1012.69 1013.10 1013.82 1014.19 1014.81 1015.30 1016.03 1016.42 1016.79
1026.32 1024.61 1022.70 1023.64 1023.71 1024.63 1026.99 1027.38 1029.70 1030.71 1030.92 1030.32 1029.71 1029.20 1028.43 1027.66 1026.97 1026.20 1025.44 1024.76 1024.14 1023.45 1022.79 1022.26 1021.66 1021.02 1020.63 1020.23 1019.90 1019.38 1018.80 1017.91 1016.78 1015.82 1014.94 1013.57 1012.32 1011.21 1011.32 1011.52 1012.16 1012.40 1013.24 1013.32 1014.35 1014.65 1015.21 1015.86 1016.13
1026.93 1025.68 1023.49 1023.39 1024.29 1026.49 1028.77 1029.12 1031.67 1031.79 1031.37 1030.85 1030.17 1029.58 1029.06 1028.17 1027.36 1026.54 1025.83 1025.17 1024.54 1023.93 1023.18 1022.53 1021.88 1021.19 1020.81 1020.30 1019.97 1019.64 1018.98 1018.29 1017.35 1016.50 1015.57 1014.44 1013.25 1012.09 1011.07 1011.42 1011.63 1012.12 1012.71 1013.12 1013.57 1014.14 1014.70 1015.04 1015.31
1027.94 1027.44 1027.48 1026.88 1026.35 1027.61 1029.51 1030.76 1031.82 1031.92 1031.24 1030.79 1030.35 1029.77 1029.19 1028.54 1027.74 1027.02 1026.37 1025.79 1025.09 1024.37 1023.58 1022.97 1022.25 1021.46 1021.01 1020.59 1020.09 1019.70 1019.16 1018.49 1017.69 1016.95 1015.93 1015.07 1014.21 1013.18 1012.22 1010.97 1011.32 1011.73 1012.21 1012.74 1012.70 1013.12 1013.98 1014.30 1014.73
1029.33 1028.73 1028.66 1028.68 1027.78 1028.11 1029.57 1031.36 1031.92 1031.20 1031.01 1030.66 1030.22 1029.68 1029.03 1028.44 1027.84 1027.23 1026.60 1026.03 1025.42 1024.73 1023.97 1023.44 1022.75 1021.93 1021.33 1020.81 1020.31 1019.62 1019.25 1018.61 1017.89 1017.03 1016.23 1015.34 1014.59 1013.36 1012.53 1011.75 1010.60 1011.11 1011.61 1011.41 1012.32 1012.10 1013.25 1013.84 1014.22
1030.41 1030.43 1029.47 1028.96 1028.84 1028.72 1029.55 1030.61 1030.95 1031.42 1031.24 1030.77 1030.21 1029.61 1028.93 1028.41 1027.79 1027.28 1026.66 1026.16 1025.71 1025.12 1024.41 1023.80 1023.16 1022.40 1021.67 1021.02 1020.34 1019.74 1019.23 1018.55 1017.87 1017.28 1016.37 1015.57 1014.76 1013.94 1012.75 1011.70 1010.38 1010.38 1010.83 1011.39 1011.58 1011.90 1012.37 1012.83 1013.39
1030.61 1030.46 1030.60 1030.19 1030.38 1030.32 1029.75 1030.11 1031.59 1031.89 1031.55 1030.89 1030.38 1029.81 1029.10 1028.53 1028.00 1027.56 1027.13 1026.57 1025.99 1025.40 1024.72 1023.97 1023.30 1022.61 1021.87 1021.19 1020.47 1019.81 1019.10 1018.50 1017.89 1017.25 1016.57 1015.59 1014.75 1013.85 1012.89 1011.97 1011.21 1009.94 1010.34 1010.88 1011.11 1010.73 1011.22 1011.78 1012.50
1031.71 1031.58 1031.40 1031.29 1030.84 1030.74 1030.81 1030.51 1030.88 1031.49 1031.30 1030.88 1030.62 1030.18 1029.54 1028.96 1028.32 1027.94 1027.56 1026.98 1026.31 1025.64 1025.02 1024.23 1023.58 1022.83 1022.20 1021.49 1020.57 1019.82 1019.12 1018.53 1017.88 1017.29 1016.65 1015.94 1014.98 1014.12 1013.18 1012.44 1011.50 1010.35 1009.55 1010.25 1010.61 1010.79 1010.92 1011.24 1011.37
Thickness
5705 5711 5717 5720 5708 5718 5716 5706 5718 5714 5719 5733 5740 5738 5745 5753 5749 5739 5769 5773 5772 5774 5765 5754 5747 5743 5742 5740 5739 5737 5734 5730 5726 5722 5720 5717 5715 5714 5712 5712 5710 5707 5705 5705 5704 5703 5703 5706 5707
5707 5710 5714 5713 5703 5706 5707 5706 5701 5706 5718 5733 5740 5741 5742 5742 5751 5756 5757 5757 5764 5765 5762 5756 5744 5740 5737 5735 5735 5732 5731 5726 5722 5718 5717 5715 5713 5711 5709 5711 5709 5707 5706 5705 5703 5702 5701 5702 5703
5704 5707 5708 5703 5699 5703 5699 5696 5697 5708 5722 5725 5729 5741 5742 5713 5728 5729 5737 5741 5748 5750 5752 5747 5743 5740 5735 5732 5729 5726 5725 5724 5719 5715 5713 5711 5709 5709 5707 5708 5708 5707 5706 5706 5703 5700 5699 5699 5701
5702 5703 5700 5693 5687 5686 5688 5692 5698 5704 5715 5723 5725 5726 5719 5682 5685 5700 5717 5727 5732 5734 5734 5729 5727 5728 5729 5727 5725 5722 5720 5720 5716 5713 5710 5707 5705 5705 5705 5705 5704 5704 5703 5704 5702 5699 5698 5696 5699
5698 5695 5683 5681 5676 5682 5686 5691 5696 5694 5699 5707 5716 5711 5694 5670 5672 5686 5698 5707 5715 5723 5724 5719 5712 5714 5716 5718 5718 5717 5716 5714 5712 5709 5708 5705 5703 5702 5701 5701 5701 5701 5700 5699 5697 5697 5696 5694 5696
5685 5684 5676 5674 5671 5675 5681 5684 5689 5692 5697 5691 5698 5702 5674 5661 5666 5667 5672 5679 5689 5704 5713 5715 5709 5710 5710 5708 5709 5710 5711 5709 5707 5706 5705 5703 5700 5697 5695 5694 5695 5696 5696 5694 5692 5692 5693 5692 5693
5676 5676 5667 5660 5661 5667 5670 5679 5673 5681 5669 5671 5676 5687 5675 5663 5651 5654 5665 5657 5671 5682 5693 5701 5708 5707 5707 5707 5705 5704 5704 5704 5704 5701 5701 5699 5695 5693 5690 5690 5693 5690 5692 5690 5687 5687 5689 5689 5690
5673 5673 5660 5657 5658 5653 5659 5666 5667 5662 5647 5656 5652 5642 5647 5636 5643 5654 5649 5641 5660 5669 5670 5677 5690 5701 5711 5713 5706 5703 5701 5700 5701 5699 5698 5694 5692 5688 5682 5683 5687 5687 5687 5686 5683 5684 5685 5686 5686
5671 5665 5656 5651 5652 5650 5651 5655 5651 5650 5642 5635 5628 5621 5620 5624 5630 5636 5635 5652 5664 5657 5659 5664 5673 5682 5694 5703 5707 5704 5701 5699 5698 5698 5696 5691 5687 5684 5680 5678 5680 5684 5684 5681 5678 5678 5680 5681 5680
5661 5655 5642 5640 5642 5633 5630 5635 5629 5634 5625 5619 5616 5615 5615 5620 5622 5625 5627 5633 5640 5645 5651 5652 5660 5670 5682 5693 5699 5703 5702 5704 5700 5698 5695 5692 5684 5680 5679 5676 5676 5679 5682 5678 5674 5674 5675 5676 5676
5644 5634 5630 5626 5623 5632 5626 5610 5603 5619 5607 5593 5596 5600 5604 5609 5616 5615 5618 5620 5624 5632 5633 5640 5652 5661 5670 5678 5688 5694 5697 5698 5699 5697 5693 5690 5683 5676 5674 5672 5673 5675 5676 5675 5673 5671 5675 5681 5680
5618 5613 5616 5603 5610 5612 5604 5594 5579 5576 5570 5572 5579 5583 5589 5594 5601 5606 5611 5615 5619 5623 5630 5637 5646 5655 5660 5667 5676 5687 5692 5693 5694 5693 5692 5689 5682 5676 5672 5673 5671 5671 5674 5676 5676 5676 5678 5678 5680
5611 5603 5597 5593 5587 5582 5581 5573 5566 5557 5555 5559 5564 5570 5574 5578 5581 5587 5593 5602 5609 5616 5623 5628 5637 5647 5654 5660 5667 5678 5684 5687 5688 5688 5688 5687 5683 5677 5666 5668 5669 5669 5674 5675 5674 5675 5676 5674 5676
5593 5586 5581 5577 5572 5564 5561 5554 5558 5542 5541 5546 5549 5554 5557 5559 5563 5569 5575 5583 5593 5601 5609 5616 5625 5635 5645 5653 5660 5668 5679 5683 5683 5683 5684 5684 5683 5677 5672 5670 5669 5670 5672 5674 5673 5671 5670 5671 5673
5583 5579 5573 5558 5556 5548 5551 5547 5524 5518 5524 5528 5530 5534 5538 5542 5547 5550 5554 5564 5573 5584 5590 5601 5612 5622 5632 5643 5651 5661 5670 5676 5678 5678 5680 5681 5681 5677 5672 5670 5666 5664 5667 5668 5669 5667 5665 5665 5666
5566 5567 5557 5550 5531 5531 5528 5537 5501 5497 5502 5507 5508 5513 5517 5524 5529 5533 5538 5546 5555 5565 5575 5586 5595 5608 5618 5628 5638 5650 5662 5671 5673 5673 5674 5675 5678 5677 5672 5669 5664 5664 5665 5663 5663 5662 5661 5660 5665
5555 5538 5530 5525 5521 5507 5505 5509 5475 5473 5477 5480 5485 5489 5494 5502 5509 5515 5521 5529 5538 5549 5558 5571 5581 5592 5603 5615 5627 5639 5652 5665 5667 5668 5669 5669 5671 5673 5673 5667 5666 5661 5660 5660 5659 5658 5658 5658 5660
5513 5509 5507 5503 5494 5480 5481 5460 5446 5445 5448 5451 5457 5463 5470 5479 5486 5493 5501 5510 5519 5532 5541 5553 5565 5576 5588 5601 5614 5626 5638 5651 5660 5666 5666 5665 5667 5667 5669 5665 5660 5658 5658 5658 5656 5653 5651 5655 5654
5486 5484 5478 5466 5448 5439 5434 5424 5412 5416 5417 5422 5431 5437 5446 5453 5462 5471 5480 5490 5499 5510 5521 5535 5548 5558 5570 5584 5594 5606 5620 5631 5646 5659 5661 5662 5661 5662 5663 5664 5661 5655 5654 5655 5653 5648 5647 5647 5646
5464 5453 5448 5439 5426 5410 5418 5390 5369 5370 5369 5379 5393 5408 5417 5428 5438 5447 5458 5469 5480 5491 5501 5515 5528 5540 5549 5562 5573 5583 5597 5619 5633 5645 5656 5657 5658 5659 5658 5660 5657 5653 5649 5646 5650 5647 5648 5644 5644
5449 5432 5416 5407 5404 5398 5395 5359 5352 5343 5343 5344 5350 5369 5387 5398 5412 5424 5434 5447 5460 5471 5481 5493 5509 5522 5533 5542 5557 5569 5587 5603 5623 5631 5640 5651 5654 5654 5655 5654 5656 5655 5650 5648 5649 5646 5646 5643 5641
5435 5414 5403 5403 5395 5406 5386 5358 5343 5343 5337 5328 5328 5336 5348 5368 5384 5399 5411 5424 5437 5450 5461 5473 5487 5503 5516 5525 5540 5549 5562 5579 5596 5608 5622 5636 5651 5652 5653 5652 5653 5656 5653 5645 5649 5646 5642 5643 5642
5404 5403 5406 5396 5393 5388 5381 5374 5332 5328 5322 5316 5317 5324 5329 5336 5353 5372 5388 5402 5414 5427 5441 5454 5468 5483 5497 5508 5519 5532 5545 5561 5579 5594 5610 5626 5643 5647 5650 5650 5650 5652 5648 5648 5647 5645 5641 5640 5642
5401 5405 5415 5398 5400 5379 5355 5363 5316 5304 5298 5307 5312 5315 5321 5328 5334 5345 5361 5378 5392 5405 5419 5434 5449 5465 5478 5493 5503 5515 5529 5544 5563 5579 5593 5609 5623 5639 5644 5647 5647 5643 5643 5644 5641 5643 5641 5638 5638
5389 5384 5401 5404 5385 5364 5328 5334 5289 5294 5299 5302 5305 5308 5309 5317 5325 5333 5342 5355 5370 5384 5399 5414 5430 5447 5461 5475 5488 5499 5513 5528 5544 5560 5576 5591 5604 5620 5637 5639 5642 5642 5640 5639 5639 5638 5638 5637 5637
5368 5361 5340 5331 5360 5352 5324 5300 5294 5296 5305 5305 5305 5306 5308 5310 5316 5323 5331 5338 5350 5363 5378 5392 5410 5427 5443 5456 5471 5484 5497 5513 5528 5542 5560 5575 5588 5600 5615 5634 5635 5637 5637 5635 5639 5641 5636 5636 5634
5352 5348 5350 5330 5355 5349 5329 5300 5293 5307 5304 5302 5301 5304 5306 5310 5312 5316 5323 5329 5337 5346 5361 5372 5389 5408 5424 5440 5453 5469 5482 5497 5512 5527 5544 5560 5573 5589 5602 5615 5632 5631 5632 5636 5636 5641 5633 5631 5631
5348 5338 5333 5343 5324 5330 5323 5304 5306 5292 5291 5296 5297 5299 5304 5306 5309 5312 5318 5322 5326 5333 5344 5355 5369 5387 5405 5422 5438 5453 5467 5483 5498 5511 5528 5545 5560 5573 5589 5604 5622 5627 5629 5626 5633 5631 5633 5632 5632
5348 5338 5327 5328 5324 5313 5318 5318 5288 5280 5284 5287 5291 5294 5298 5300 5301 5303 5307 5312 5318 5323 5330 5340 5353 5369 5387 5405 5422 5438 5452 5468 5483 5497 5512 5531 5546 5562 5577 5589 5602 5619 5624 5624 5627 5630 5634 5634 5631
5342 5327 5323 5311 5317 5321 5309 5305 5304 5289 5287 5287 5284 5284 5286 5289 5293 5294 5296 5300 5308 5314 5321 5329 5338 5352 5368 5386 5405 5423 5438 5453 5469 5483 5497 5515 5531 5547 5562 5575 5590 5607 5619 5618 5618 5623 5623 5629 5631